Weather History for Oakland, CA

Change the Weather History Date:

Friday, November 23, 2012

  Actual Average Record
Temperature  
Mean Temperature 54 °F 52 °F  
Max Temperature 67 °F 61 °F 74 °F (1959)
Min Temperature 41 °F 44 °F 35 °F (2003)
Degree Days  
Heating Degree Days 11 13  
Month to date heating degree days 161 228  
Since 1 July heating degree days 570 580  
Cooling Degree Days 0 0  
Month to date cooling degree days 2 0  
Year to date cooling degree days 61 137  
Growing Degree Days 4 (Base 50)    
Moisture  
Dew Point 47 °F    
Average Humidity 76    
Maximum Humidity 100    
Minimum Humidity 52    
Precipitation  
Precipitation 0.00 in 0.08 in 1.00 in (1963)
Month to date precipitation 2.04 1.88  
Year to date precipitation 14.81 16.58  
Since 1 July precipitation 2.87 3.36  
Sea Level Pressure  
Sea Level Pressure 30.22 in    
Wind  
Wind Speed 2 mph (WSW)    
Max Wind Speed 14 mph    
Max Gust Speed 43 mph    
Visibility 10 miles    
Events      
T = Trace of Precipitation, MM = Missing Value Source: NWS Daily Summary

Daily Weather History Graph

Daily Weather History Graph

Search for Another Location

Airport:

Trip Planner

Search our weather history database for the weather conditions in past years. The results will help you decide how hot, cold, wet, or windy it might be!

Date:

Astronomy

Nov. 23, 2012 Rise Set
Actual Time 6:58 AM PST 4:52 PM PST
Civil Twilight 6:29 AM PST 5:21 PM PST
Nautical Twilight 5:57 AM PST 5:53 PM PST
Astronomical Twilight 5:26 AM PST 6:24 PM PST
Moon 2:06 PM PST (11/23) 2:26 AM PST (11/23)
Length of Visible Light 10h 51m
Length of Day
9h 54m
Waxing Gibbous, 80% of the Moon is Illuminated
Nov 23
Waxing Gibbous
Nov 28
Full
Dec 6
Last Quarter
Dec 13
New
Dec 19
First Quarter

Hourly Weather History & Observations

Time (PST) Temp. Windchill Dew Point Humidity Pressure Visibility Wind Dir Wind Speed Gust Speed Precip Events Conditions
12:53 AM 48.0 °F - 44.1 °F 86% 30.24 in 10.0 mi Calm Calm - N/A   Clear
1:53 AM 46.0 °F - 43.0 °F 89% 30.24 in 10.0 mi Calm Calm - N/A   Partly Cloudy
2:53 AM 46.9 °F - 43.0 °F 86% 30.24 in 10.0 mi Calm Calm - N/A   Partly Cloudy
3:53 AM 46.0 °F 44.8 °F 43.0 °F 89% 30.23 in 10.0 mi ENE 3.5 mph - N/A   Partly Cloudy
4:53 AM 46.0 °F 44.8 °F 43.0 °F 89% 30.25 in 10.0 mi NE 3.5 mph - N/A   Partly Cloudy
5:53 AM 44.1 °F - 41.0 °F 89% 30.25 in 8.0 mi Calm Calm - N/A   Clear
6:53 AM 45.0 °F - 44.1 °F 97% 30.26 in 10.0 mi Calm Calm - N/A   Overcast
7:53 AM 46.0 °F 43.9 °F 46.0 °F 100% 30.27 in 10.0 mi SE 4.6 mph - N/A   Scattered Clouds
8:53 AM 52.0 °F - 48.9 °F 89% 30.27 in 10.0 mi SE 5.8 mph - N/A   Scattered Clouds
9:53 AM 57.9 °F - 48.9 °F 72% 30.27 in 10.0 mi Calm Calm - N/A   Scattered Clouds
10:53 AM 57.0 °F - 50.0 °F 77% 30.27 in 10.0 mi West 6.9 mph - N/A   Scattered Clouds
11:53 AM 60.1 °F - 50.0 °F 69% 30.24 in 10.0 mi WSW 8.1 mph - N/A   Scattered Clouds
12:53 PM 61.0 °F - 51.1 °F 70% 30.22 in 10.0 mi SW 6.9 mph - N/A   Partly Cloudy
1:53 PM 63.0 °F - 50.0 °F 63% 30.19 in 10.0 mi SW 5.8 mph - N/A   Partly Cloudy
2:53 PM 64.0 °F - 46.9 °F 54% 30.19 in 10.0 mi West 4.6 mph - N/A   Partly Cloudy
3:53 PM 64.9 °F - 52.0 °F 63% 30.18 in 10.0 mi WNW 5.8 mph - N/A   Scattered Clouds
4:53 PM 64.9 °F - 46.9 °F 52% 30.17 in 10.0 mi Calm Calm - N/A   Scattered Clouds
5:53 PM 61.0 °F - 51.1 °F 70% 30.18 in 10.0 mi WNW 3.5 mph - N/A   Partly Cloudy
6:53 PM 57.9 °F - 52.0 °F 81% 30.19 in 10.0 mi Calm Calm - N/A   Clear
7:53 PM 57.0 °F - 51.1 °F 81% 30.20 in 10.0 mi Calm Calm - N/A   Clear
8:53 PM 54.0 °F - 50.0 °F 86% 30.21 in 10.0 mi Calm Calm - N/A   Clear
9:53 PM 54.0 °F - 46.0 °F 75% 30.21 in 10.0 mi Calm Calm - N/A   Clear
10:53 PM 54.0 °F - 45.0 °F 72% 30.21 in 10.0 mi Calm Calm - N/A   Clear
11:53 PM 50.0 °F - 44.1 °F 80% 30.21 in 10.0 mi Calm Calm - N/A   Clear